EW2175 Weather Reports


time (UTC)temp
C
wind
direction
speed
KPH
gust
KPH
rain 1hr
cm
rain 24hr
cm
rain mn
cm
humidity
%
barometer
mb
20200226014607 3 130 6.4 19.3 0.15 0.23 0.15 90 1001.9
20200226013117 3 199 3.2 11.3 0.15 0.23 0.15 89 1001.8
20200226011648 3 238 8.0 27.4 0.15 0.23 0.15 86 1001.8
20200226010118 5 323 17.7 37.0 0.05 0.15 0.05 83 1001.6
20200226004644 6 209 14.5 46.7 0.00 0.08 0.00 81 1000.3
20200226003116 6 200 19.3 38.6 0.00 0.08 0.00 79 1000.3
20200226001746 6 254 24.1 38.6 0.00 0.08 0.00 78 1000.1
20200226000129 6 171 20.9 38.6 0.00 0.08 0.00 76 1000.0
20200225234601 7 158 19.3 37.0 0.00 0.08 0.00 75 1000.2
20200225233034 7 231 17.7 38.6 0.00 0.08 0.00 75 999.8
20200225231549 7 162 19.3 40.2 0.00 0.08 0.00 74 1000.0
20200225230039 7 130 20.9 40.2 0.00 0.08 0.00 75 1000.1
20200225224517 7 138 19.3 30.6 0.00 0.08 0.08 75 1000.3
20200225223014 7 213 17.7 41.8 0.00 0.08 0.08 75 1000.5
20200225221518 7 227 19.3 35.4 0.00 0.08 0.08 77 1000.6
20200225220012 7 157 19.3 33.8 0.00 0.08 0.08 79 1000.6
20200225214512 7 196 12.9 25.7 0.00 0.08 0.08 79 1000.8
20200225213016 8 167 12.9 30.6 0.00 0.08 0.08 78 1001.0
20200225211526 7 212 9.7 20.9 0.00 0.08 0.08 78 1001.2
20200225210004 7 189 16.1 33.8 0.00 0.08 0.08 79 1001.5
20200225204624 7 167 8.0 32.2 0.00 0.08 0.08 79 1001.7
20200225203133 7 172 9.7 29.0 0.00 0.08 0.08 76 1001.9
20200225201706 7 204 11.3 20.9 0.00 0.08 0.08 76 1002.0
20200225200214 7 163 6.4 19.3 0.00 0.08 0.08 78 1002.0
20200225194756 7 96 9.7 16.1 0.00 0.08 0.08 78 1002.1
20200225193124 8 144 8.0 24.1 0.00 0.08 0.08 77 1002.3
20200225191835 8 210 11.3 25.7 0.00 0.08 0.08 77 1002.5
20200225190115 8 206 11.3 29.0 0.00 0.08 0.08 77 1002.7
20200225184634 8 212 16.1 27.4 0.00 0.08 0.08 78 1002.6
20200225183228 8 185 14.5 29.0 0.00 0.08 0.08 78 1002.9
20200225181645 8 204 12.9 27.4 0.00 0.08 0.08 77 1003.0
20200225180221 8 202 16.1 29.0 0.00 0.08 0.08 76 1003.4
20200225174658 8 205 12.9 24.1 0.00 0.08 0.08 76 1003.3
20200225173118 8 206 12.9 22.5 0.00 0.08 0.08 76 1003.2
20200225171659 8 172 11.3 30.6 0.00 0.08 0.08 77 1003.3
20200225170055 9 190 19.3 33.8 0.00 0.08 0.08 79 1003.1
20200225164616 9 204 16.1 25.7 0.00 0.08 0.08 80 1002.8
20200225163159 9 128 12.9 30.6 0.00 0.08 0.08 81 1002.9
20200225161551 9 148 9.7 33.8 0.00 0.08 0.08 81 1002.8
20200225160128 10 127 14.5 24.1 0.00 0.08 0.08 79 1002.8
20200225154626 9 192 19.3 32.2 0.00 0.08 0.08 80 1002.8
20200225153122 10 161 12.9 32.2 0.00 0.08 0.08 80 1003.2
20200225151608 10 223 12.9 30.6 0.00 0.08 0.08 82 1003.4
20200225150120 8 175 14.5 35.4 0.00 0.08 0.08 85 1003.7
20200225144616 8 206 12.9 29.0 0.00 0.08 0.08 87 1004.0
20200225143115 8 234 16.1 35.4 0.00 0.08 0.08 85 1004.2
20200225141621 8 217 20.9 40.2 0.00 0.08 0.08 84 1004.4
20200225140049 8 211 19.3 40.2 0.00 0.08 0.08 84 1004.4
20200225134545 8 197 16.1 38.6 0.00 0.08 0.08 83 1004.3
20200225133037 8 225 25.7 41.8 0.00 0.08 0.08 83 1004.3
20200225131530 8 174 22.5 35.4 0.00 0.08 0.08 83 1004.5
20200225130042 8 193 17.7 37.0 0.03 0.08 0.08 83 1004.9
20200225124548 8 153 16.1 37.0 0.03 0.08 0.08 83 1005.2
20200225123022 8 216 17.7 35.4 0.03 0.08 0.08 84 1005.5
20200225120020 8 207 8.0 29.0 0.00 0.05 0.05 81 1006.0
20200225114518 8 219 19.3 35.4 0.00 0.05 0.05 81 1006.3
20200225113009 8 216 8.0 38.6 0.00 0.05 0.05 82 1006.3
20200225111516 8 206 16.1 37.0 0.00 0.05 0.05 82 1006.5
20200225110009 8 200 17.7 35.4 0.00 0.05 0.05 82 1006.7
20200225104505 8 177 17.7 38.6 0.00 0.05 0.05 84 1006.8
20200225103029 7 242 16.1 40.2 0.00 0.05 0.05 85 1006.9
20200225101501 7 183 11.3 27.4 0.00 0.05 0.05 86 1007.0
20200225100208 7 184 12.9 30.6 0.00 0.05 0.05 87 1007.2
20200225094610 7 209 17.7 32.2 0.00 0.05 0.05 86 1007.5
20200225093152 7 186 9.7 29.0 0.00 0.05 0.05 86 1007.5
20200225091618 7 185 16.1 35.4 0.00 0.05 0.05 86 1007.6
20200225090211 7 157 16.1 30.6 0.03 0.05 0.05 87 1007.8
20200225084628 6 196 12.9 37.0 0.05 0.05 0.05 87 1007.9
20200225083049 6 149 14.5 33.8 0.05 0.05 0.05 87 1007.9
20200225081602 6 230 16.1 37.0 0.05 0.05 0.05 87 1008.1
20200225080106 7 231 14.5 30.6 0.05 0.05 0.05 84 1008.0
20200225074547 7 198 20.9 38.6 0.00 0.00 0.00 80 1007.8
20200225073047 7 162 19.3 32.2 0.00 0.00 0.00 78 1008.2
20200225071635 7 180 16.1 35.4 0.00 0.00 0.00 76 1008.1
20200225070105 7 214 12.9 30.6 0.00 0.00 0.00 78 1007.9
20200225064538 7 211 17.7 33.8 0.00 0.00 0.00 78 1008.0
20200225063056 7 180 19.3 40.2 0.00 0.00 0.00 77 1008.0
20200225061554 7 215 14.5 40.2 0.00 0.00 0.00 75 1008.1
20200225060033 7 187 19.3 38.6 0.00 0.00 0.00 76 1008.2
20200225054523 8 175 12.9 40.2 0.00 0.00 0.00 76 1008.1
20200225053038 8 188 20.9 38.6 0.00 0.00 0.00 76 1008.4
20200225051552 8 211 19.3 43.5 0.00 0.00 0.00 75 1008.2
20200225050022 8 197 22.5 35.4 0.00 0.00 0.00 75 1008.2
20200225044626 8 211 14.5 33.8 0.00 0.00 0.00 75 1008.4
20200225041525 9 165 17.7 32.2 0.00 0.00 0.00 74 1008.2
20200225040005 9 172 19.3 33.8 0.00 0.00 0.00 74 1008.3
20200225034502 9 210 17.7 33.8 0.00 0.00 0.00 75 1008.6
20200225033215 10 211 14.5 37.0 0.00 0.00 0.00 73 1008.5
20200225031716 10 248 17.7 38.6 0.00 0.00 0.00 72 1008.6
20200225030255 10 221 19.3 43.5 0.00 0.00 0.00 72 1008.8
20200225024632 10 227 8.0 29.0 0.00 0.00 0.00 73 1008.8
20200225023144 11 223 17.7 35.4 0.00 0.00 0.00 70 1009.0
20200225021618 11 240 12.9 30.6 0.00 0.00 0.00 67 1009.1
20200225020056 11 202 17.7 35.4 0.00 0.00 0.00 64 1009.2